EHI
0 0 1 0 0 0 0 0 0 1 0 1 2 3 5 6 7 7 6 16 34 42 35 34 37 34 27 21 16 12 12 13 11 7 7 10 11 11 9 8 8 7 6 5 5 5 6 5 4
0 0 1 0 0 0 0 1 2 2 1 1 2 4 4 5 6 7 8 17 32 40 35 35 39 34 25 19 15 12 11 12 11 8 7 9 10 10 9 8 7 6 5 4 3 4 4 4 4
0 0 0 0 0 0 1 2 4 3 1 2 3 4 4 3 3 7 12 19 30 36 34 38 41 34 24 17 14 12 10 10 10 9 8 9 9 9 9 7 5 5 4 3 2 2 2 2 2
0 0 0 0 0 0 1 2 3 2 1 2 3 4 4 4 5 9 14 20 27 31 33 38 42 38 27 20 16 13 10 9 9 10 9 9 8 8 8 5 4 3 3 3 2 1 1 1 1
0 0 0 0 0 0 0 0 1 1 0 1 2 5 8 9 10 12 14 18 24 29 34 38 43 42 34 27 22 18 14 11 10 10 9 9 8 7 6 4 2 3 3 3 3 3 3 2 1
0 0 0 0 0 0 0 0 0 0 0 1 2 6 12 13 12 13 13 16 21 29 35 37 41 43 42 37 31 25 19 14 12 11 11 10 8 6 5 4 3 4 5 5 5 5 5 3 1
0 0 0 0 0 0 0 0 1 1 2 1 2 7 14 17 14 12 11 14 21 29 34 33 33 38 41 40 36 30 24 18 15 14 12 10 8 7 7 5 5 6 8 8 7 7 7 5 3
0 0 0 0 0 0 0 0 1 2 3 3 4 8 15 19 16 11 11 15 22 28 32 30 27 28 30 33 35 33 27 21 18 16 13 10 8 7 7 6 7 9 11 10 9 9 9 7 6
0 0 0 0 0 0 0 0 1 3 4 5 6 9 14 17 16 13 13 18 24 28 30 29 27 24 23 25 31 32 27 21 17 15 12 9 7 6 5 6 9 11 12 11 11 11 10 9 8
0 0 0 0 0 0 0 1 2 4 4 4 6 11 14 15 16 15 16 20 25 28 29 30 30 28 26 27 31 29 23 18 15 12 11 10 10 8 7 9 11 12 12 10 9 9 9 7 6
0 0 0 0 0 0 0 1 2 3 4 4 8 13 14 14 15 15 17 21 24 26 29 32 32 30 30 32 33 26 20 17 13 11 12 13 13 12 11 12 13 12 11 10 8 8 7 5 4
0 0 0 0 0 0 1 1 2 3 4 4 8 13 13 12 12 14 18 23 25 25 28 32 33 33 34 37 34 27 22 19 16 14 14 14 14 13 12 13 12 9 9 10 9 8 6 4 3
0 0 0 0 0 0 1 2 2 2 3 4 6 10 12 11 11 16 23 28 30 30 30 32 35 38 41 42 37 29 26 24 22 21 17 14 13 12 11 11 11 9 9 10 9 7 6 5 4
0 0 0 0 0 0 1 1 1 2 3 3 5 8 10 11 12 18 28 33 35 36 36 34 35 39 43 43 39 34 30 27 27 27 22 16 14 13 11 11 11 10 9 10 9 7 5 4 3
0 0 0 0 0 0 1 1 1 2 2 3 5 8 11 13 13 17 28 36 38 39 39 34 32 35 38 37 37 36 32 27 28 29 27 21 16 14 13 12 11 9 9 11 10 6 2 2 2
0 0 0 0 0 0 1 2 2 1 1 3 5 10 14 15 14 17 27 36 40 41 38 33 30 31 31 32 34 35 33 29 28 29 29 24 18 15 14 13 11 9 9 10 9 5 2 1 1
0 0 0 0 0 0 1 1 2 1 1 3 6 9 12 14 15 19 26 33 41 45 40 35 33 30 28 30 32 33 34 33 30 29 28 25 20 17 15 13 11 9 9 9 7 5 3 2 2
0 0 0 0 0 0 0 1 2 1 1 3 5 6 8 12 17 21 26 31 40 47 45 40 38 32 28 28 30 32 34 33 30 27 27 26 23 19 15 13 12 9 7 7 6 5 4 4 4
0 0 0 0 0 0 0 0 1 2 2 2 2 3 6 13 19 24 28 34 42 48 47 44 40 34 28 27 27 29 31 30 27 26 27 26 22 18 15 14 14 11 7 5 4 4 4 4 5
0 0 0 0 0 0 0 0 2 3 3 2 2 3 7 14 20 25 30 35 42 45 45 43 39 33 27 25 26 27 28 27 26 26 26 24 21 17 14 13 14 12 8 6 4 3 3 3 4
0 0 0 0 0 0 0 1 3 4 4 3 3 4 9 14 19 24 28 31 35 39 41 39 37 33 27 26 27 27 26 25 25 25 24 22 20 18 15 13 13 11 9 8 6 4 4 4 4
0 0 0 0 0 1 1 1 4 4 4 3 4 5 8 11 16 21 25 26 28 31 35 36 36 33 28 26 26 26 24 23 23 23 24 22 20 18 16 15 15 12 9 8 7 6 5 6 5
0 0 0 0 0 0 1 1 3 3 4 5 5 6 8 9 13 18 23 24 23 25 29 33 35 32 28 25 24 24 22 20 19 22 24 24 22 19 16 16 16 14 9 7 8 8 8 9 8
0 0 0 0 0 0 0 1 2 3 5 7 7 7 8 10 12 16 20 22 21 20 24 29 32 32 28 24 22 22 21 21 20 20 22 23 22 19 15 15 16 15 10 7 7 9 10 10 9
0 0 0 0 1 0 0 1 2 3 5 8 8 7 9 10 11 13 17 20 20 19 21 25 29 30 27 24 23 22 22 22 20 19 19 21 20 17 15 15 16 15 12 8 7 8 9 8 7
0 0 0 0 0 0 0 1 2 3 5 8 8 8 9 10 11 11 13 16 19 20 22 24 27 28 26 23 23 23 22 20 19 19 19 19 17 15 15 15 14 14 12 8 7 8 7 5 4
0 0 0 0 0 0 0 0 2 3 5 7 7 6 7 8 9 10 10 12 15 19 22 24 27 27 24 22 21 21 21 20 19 19 19 19 18 15 15 14 12 11 10 8 8 8 6 4 4
0 0 0 0 0 0 0 0 2 3 5 6 6 5 3 4 5 7 9 11 13 15 18 21 25 27 25 21 20 19 20 20 17 17 17 18 17 14 12 12 11 10 10 9 10 9 7 4 3
0 0 0 0 0 0 0 0 1 3 5 6 6 5 2 1 2 4 7 10 11 13 15 19 23 24 22 19 17 17 18 17 14 12 13 13 12 10 8 9 9 9 10 11 10 9 5 2 1
0 0 0 0 0 0 0 0 1 3 6 6 6 5 2 1 1 3 7 9 10 12 14 18 22 21 17 14 14 15 15 15 12 10 10 9 7 6 5 6 9 9 9 10 9 6 3 1 0
Wind_Speed
9 12 11 9 7 7 8 3 1 4 6 8 7 6 9 10 8 8 6 11 16 17 15 15 13 12 11 11 11 11 11 11 11 10 10 9 9 8 8 7 7 7 6 7 7 7 7 7 6
11 14 10 7 7 8 3 0 4 7 7 5 4 5 7 9 9 9 8 10 15 16 14 13 14 12 11 11 10 10 10 10 10 10 10 9 8 8 7 7 6 6 5 6 6 6 6 5 5
13 17 9 8 10 7 2 4 6 6 5 3 3 6 6 6 7 7 8 10 14 14 13 14 14 12 11 11 11 10 10 10 10 10 9 9 8 7 6 6 6 5 5 5 5 5 5 4 4
10 9 8 8 9 4 2 4 5 3 3 2 2 4 6 6 6 7 8 10 13 14 14 14 14 13 12 11 11 10 10 9 9 9 8 8 7 6 6 5 5 5 5 5 4 4 4 3 3
11 8 10 10 8 4 1 4 4 1 1 2 3 5 7 7 8 9 7 9 11 13 14 14 13 13 12 12 11 10 10 9 8 8 8 7 7 6 5 5 5 5 5 5 5 4 4 3 2
9 9 11 8 7 4 2 3 1 1 1 1 1 4 6 7 6 7 7 7 10 13 14 13 13 13 12 12 11 10 9 9 8 8 8 7 6 6 6 6 5 5 5 5 5 4 3 2 2
11 10 12 11 8 4 2 3 1 2 2 1 1 4 6 7 7 7 7 6 9 12 13 12 12 11 12 12 11 10 10 9 9 8 8 7 7 7 7 6 6 5 5 4 4 3 2 2 2
10 10 14 12 7 4 3 2 1 2 3 3 3 2 6 8 7 6 7 6 8 9 12 11 11 10 10 10 11 11 10 10 9 9 9 9 8 8 8 8 7 6 5 4 4 4 4 3 3
13 11 12 10 6 4 1 1 1 0 1 1 2 4 7 9 8 7 6 6 6 7 9 10 10 9 9 10 10 10 10 10 9 8 9 8 6 7 7 7 8 7 6 5 5 4 4 4 6
11 10 12 9 7 6 3 2 1 3 3 2 3 7 8 9 8 7 6 7 7 6 7 7 9 8 7 6 8 6 7 7 6 5 6 5 4 4 5 8 9 8 7 6 7 6 5 5 4
12 13 11 10 8 6 5 4 4 6 4 1 2 7 8 7 7 6 6 6 6 6 5 5 6 6 5 4 5 3 3 4 5 5 5 4 2 3 4 4 5 5 6 4 5 5 4 3 2
12 12 11 10 7 6 5 5 6 5 3 2 2 4 6 6 6 6 5 5 6 6 5 5 5 5 4 4 3 3 3 3 3 4 4 3 2 2 2 2 2 3 2 3 3 2 3 2 2
12 12 10 9 8 6 6 6 7 6 1 1 2 5 6 7 6 6 6 5 6 6 5 6 4 4 3 3 2 2 2 2 3 3 3 2 2 2 2 1 1 2 2 2 2 1 1 2 1
10 10 10 9 9 8 7 7 6 6 3 4 4 5 5 5 5 4 5 5 5 5 5 5 4 4 4 3 2 2 2 2 3 3 3 2 2 2 1 1 1 1 1 2 1 1 1 1 1
10 11 11 11 10 8 7 8 7 6 5 6 5 5 5 5 5 6 5 5 5 5 5 5 5 5 3 3 2 2 2 3 2 3 3 3 2 2 1 1 1 1 1 1 1 0 1 1 1
12 12 12 10 8 7 8 8 5 6 6 5 5 5 4 4 4 5 6 6 6 5 5 4 5 6 4 3 2 1 1 3 2 3 3 3 2 2 2 2 1 2 1 1 1 1 1 1 1
12 11 11 8 9 8 9 8 5 5 6 5 5 5 5 4 4 4 5 6 6 6 6 5 4 5 5 4 2 1 1 2 2 3 3 3 2 2 2 1 1 2 1 1 1 1 1 1 1
10 10 10 10 9 8 8 6 5 5 6 6 5 5 5 6 5 4 5 6 7 7 7 6 5 4 4 4 3 2 2 3 2 3 3 3 2 2 2 1 1 1 1 0 1 1 1 1 2
11 11 12 10 8 6 7 7 6 6 6 5 5 5 5 6 6 6 6 6 6 7 7 6 6 5 4 3 3 3 2 3 3 3 4 4 2 2 1 1 1 1 1 1 1 1 2 2 1
13 13 12 9 8 7 8 8 6 6 6 4 4 4 5 5 6 6 6 6 6 7 7 6 6 5 4 3 3 2 2 3 3 3 4 4 3 2 2 2 1 1 1 1 1 1 1 2 1
12 12 11 10 11 9 9 9 5 6 6 5 4 4 5 6 6 6 7 6 7 7 7 6 5 5 4 4 3 2 2 1 2 4 4 4 4 3 2 1 1 1 2 2 2 2 2 1 1
10 11 11 11 12 8 9 8 6 7 7 5 4 4 4 5 7 7 7 7 7 7 7 6 5 4 4 3 3 3 3 2 2 2 3 4 4 3 3 2 2 2 2 2 2 1 1 1 1
11 11 11 12 12 12 10 9 5 6 6 5 4 5 5 5 6 7 7 7 8 8 8 7 6 5 4 4 4 3 2 2 2 2 3 3 3 3 4 4 3 3 2 2 2 2 2 1 2
10 11 12 11 9 11 10 9 6 4 4 5 5 5 5 5 5 6 7 8 7 7 7 8 7 5 5 4 4 3 2 2 2 2 3 3 2 3 3 3 3 3 2 2 2 2 3 2 2
10 9 7 7 7 8 7 6 3 2 4 4 3 4 4 4 5 6 7 8 7 7 7 7 7 6 5 5 4 4 3 3 3 2 2 2 2 2 3 3 3 2 2 3 2 3 3 3 3
10 10 8 8 9 8 6 5 1 2 5 6 4 4 5 3 4 6 6 6 7 7 7 7 7 6 5 5 4 3 3 3 2 2 2 1 1 1 2 2 2 3 3 3 3 3 3 3 2
11 10 11 11 13 11 6 3 4 3 5 5 5 6 5 4 4 6 6 5 6 6 6 6 6 5 5 5 4 3 3 2 2 2 2 1 1 1 1 1 2 2 3 3 2 2 3 3 3
10 9 6 7 9 10 8 5 2 4 3 4 4 5 5 4 4 5 6 5 5 5 5 5 5 5 5 4 4 4 3 2 2 2 2 1 1 1 1 1 2 2 3 3 3 2 2 3 3
9 9 8 7 8 9 8 3 4 4 3 3 3 4 5 4 4 5 6 5 5 5 5 5 5 5 5 5 4 3 3 2 2 2 1 1 1 1 2 2 2 3 3 3 3 2 2 2 2
9 9 8 8 9 9 8 3 4 4 4 3 2 4 4 3 3 4 6 6 5 5 5 5 4 5 5 4 4 3 2 2 2 2 1 1 2 2 2 2 2 3 3 3 3 3 3 3 3
Wind_Direction
253 254 246 249 247 241 251 241 193 75 73 59 34 35 47 44 54 90 106 98 109 117 127 129 127 125 124 123 125 125 124 123 122 121 118 116 112 109 108 106 103 102 105 107 106 104 102 99 97
267 261 252 247 253 260 266 47 72 69 68 64 49 45 65 64 71 98 98 100 110 119 130 130 130 129 127 126 126 128 128 128 128 128 127 126 122 119 116 113 112 112 111 111 112 110 107 103 100
267 265 262 248 246 267 319 46 61 70 71 58 55 41 54 75 84 99 105 113 112 117 124 127 134 132 132 132 132 133 133 133 135 135 134 133 131 129 126 123 122 124 119 117 119 116 112 107 101
259 249 239 255 263 272 326 59 69 52 83 86 87 88 78 69 87 104 115 121 120 127 128 130 135 135 135 137 137 138 139 138 138 140 140 138 139 138 136 133 132 129 123 119 117 117 118 119 113
246 259 250 258 270 278 34 74 83 29 57 79 62 93 94 83 92 108 120 129 131 130 129 132 137 137 140 143 143 143 143 143 143 145 145 145 146 143 139 134 130 125 121 116 110 107 109 121 131
253 254 258 261 265 252 144 91 97 216 103 98 114 106 101 107 113 121 126 137 134 129 127 132 139 143 146 148 149 149 148 148 149 149 151 151 151 150 145 139 133 128 125 121 114 111 112 118 138
256 269 272 272 267 262 107 88 340 348 327 319 21 101 120 130 130 136 133 138 131 129 128 138 145 147 148 150 151 151 153 153 154 156 159 161 161 158 154 147 141 136 134 133 135 137 150 169 198
259 275 277 275 281 292 107 107 54 310 321 357 2 67 124 127 135 140 136 134 130 130 131 142 146 148 152 151 154 154 155 157 160 166 172 173 175 173 169 156 149 150 152 156 169 180 192 206 223
257 260 269 281 296 310 71 176 156 227 281 11 37 79 122 138 147 149 148 145 136 128 134 147 146 153 158 156 157 159 163 168 171 179 186 182 185 180 177 160 157 167 172 178 192 202 209 222 230
245 256 266 283 305 314 306 274 280 257 236 212 150 118 132 145 154 163 163 153 145 143 146 145 142 145 154 155 150 165 172 167 182 175 177 188 192 175 160 148 165 177 184 189 203 213 219 227 223
245 257 273 287 300 304 293 288 273 270 262 256 145 137 142 156 162 169 166 157 148 142 136 127 130 133 145 140 149 160 166 161 181 170 177 185 182 159 137 151 160 182 190 201 197 212 220 220 220
250 254 263 273 285 289 286 283 284 272 288 18 101 144 154 171 171 173 168 146 140 144 131 119 120 123 125 122 144 162 164 155 166 162 173 172 171 154 140 145 160 181 189 196 196 206 207 216 233
255 259 255 264 270 272 277 276 277 273 222 238 187 172 171 183 185 172 152 151 137 132 118 105 107 119 119 107 141 140 126 143 145 147 150 167 161 140 140 153 169 197 182 181 217 208 194 218 237
266 272 269 265 260 255 250 257 257 258 213 217 209 193 185 180 173 159 151 150 135 131 128 122 129 119 124 125 125 112 128 147 139 127 139 166 142 131 151 164 188 217 191 178 197 190 209 232 246
266 267 262 255 251 241 244 252 243 236 219 226 217 199 193 182 170 162 154 144 135 132 128 128 139 125 137 139 153 148 155 153 141 133 143 150 139 140 162 180 192 226 218 165 175 207 220 228 221
257 255 254 246 239 235 238 253 232 221 214 220 221 201 187 174 183 160 155 145 139 136 135 148 152 139 147 136 153 136 143 139 137 132 136 139 151 156 176 173 187 223 211 173 190 179 223 257 255
248 253 260 248 232 231 240 248 216 216 210 216 214 199 186 166 183 156 152 144 138 134 140 142 132 144 144 142 147 153 135 119 122 122 127 140 157 158 159 171 179 202 190 175 212 162 208 236 247
261 259 263 262 249 241 239 247 216 213 218 214 210 201 190 177 175 166 149 148 140 138 142 146 145 145 148 147 157 167 154 140 135 131 128 137 159 158 161 169 140 146 138 187 205 151 229 240 233
271 272 271 271 262 256 256 257 231 208 222 210 214 208 195 175 165 153 150 150 142 139 145 153 154 152 161 159 170 170 166 161 155 152 144 149 160 158 159 159 165 167 146 165 205 198 227 242 229
265 272 277 288 290 270 263 263 240 205 218 216 221 213 185 162 159 151 150 146 144 143 144 152 156 160 172 160 165 167 173 178 157 142 143 159 160 169 174 158 166 151 164 185 217 247 238 247 223
264 272 280 285 283 272 275 265 239 220 208 203 213 204 174 166 160 160 163 158 154 151 150 154 155 157 169 167 161 158 149 188 158 155 158 164 166 166 170 166 187 178 184 176 216 227 240 245 244
269 276 280 277 273 265 251 263 229 210 195 189 200 202 182 166 154 157 165 164 162 154 149 142 145 148 161 171 170 173 166 181 177 160 157 161 167 172 183 192 203 201 203 198 210 181 245 247 247
273 281 280 275 278 276 264 264 243 218 195 183 190 196 182 161 151 157 164 161 158 154 148 146 147 150 157 172 169 179 186 177 169 158 150 163 174 185 193 197 202 207 211 197 202 210 231 245 250
275 275 274 270 265 263 261 260 250 229 192 177 177 172 159 153 151 150 151 150 155 155 152 151 151 153 157 170 176 180 189 181 171 169 170 181 179 193 202 205 204 200 208 204 207 215 223 239 262
271 271 274 274 260 261 260 257 254 172 155 136 147 147 141 140 134 136 148 154 160 158 153 153 153 157 165 171 179 184 196 198 194 200 206 200 195 193 198 214 200 197 215 216 217 220 221 230 249
262 264 267 277 280 279 263 249 209 108 120 122 122 124 130 139 135 138 141 150 159 157 153 152 155 158 168 175 178 187 196 211 205 202 220 220 236 235 191 200 200 201 218 227 223 221 221 226 236
264 264 278 282 281 283 272 229 138 139 128 123 131 131 141 160 161 137 133 140 146 150 151 155 153 160 169 174 172 185 191 203 214 208 208 231 246 253 205 212 215 216 218 218 219 220 224 226 230
257 273 278 277 288 287 279 271 160 159 142 134 142 142 139 152 154 135 135 133 133 140 142 150 153 162 166 173 182 187 180 191 204 208 207 203 219 262 239 233 226 226 230 224 220 216 220 219 220
260 258 262 272 272 281 285 291 97 135 133 140 145 127 132 141 146 139 138 139 135 141 150 154 156 162 169 173 172 174 172 190 196 191 199 195 206 226 236 234 232 227 221 219 219 214 211 217 220
257 262 263 268 277 280 283 290 76 104 122 137 126 112 120 126 146 145 142 144 143 148 153 156 165 170 171 171 165 168 164 167 164 174 194 207 217 238 244 237 234 231 220 210 214 220 219 216 213